This is the latest recevied weather packets stored in our database for station/object KE0TNI-13. If no packets are shown the sender has not sent any weather packets the latest 10 day(s).
| Time | Temp. | Humidity | Pressure | Rain* | Wind** | Luminosity | Snow |
|---|---|---|---|---|---|---|---|
| 1777919849 | 12.22° C | 37% | 1014.9 hPa | 0 mm | - | 128 W/m² | - |
| 1777919546 | 13.89° C | 34% | 1014.7 hPa | 0 mm | - | 142 W/m² | - |
| 1777919244 | 14.44° C | 34% | 1014.7 hPa | 0 mm | - | 187 W/m² | - |
| 1777918941 | 13.33° C | 33% | 1014.9 hPa | 0 mm | - | 420 W/m² | - |
| 1777918639 | 11.67° C | 29% | 1014.9 hPa | 0 mm | - | 511 W/m² | - |
| 1777918336 | 11.67° C | 30% | 1014.9 hPa | 0 mm | - | 183 W/m² | - |
| 1777918035 | 11.67° C | 30% | 1015.3 hPa | 0 mm | - | 161 W/m² | - |
| 1777917733 | 11.67° C | 32% | 1015.2 hPa | 0 mm | - | 146 W/m² | - |
| 1777917430 | 11.67° C | 30% | 1015 hPa | 0 mm | - | 130 W/m² | - |
| 1777917127 | 11.67° C | 31% | 1014.9 hPa | 0 mm | - | 134 W/m² | - |
| 1777916825 | 12.22° C | 30% | 1015.2 hPa | 0 mm | - | 120 W/m² | - |
| 1777916522 | 12.22° C | 30% | 1015 hPa | 0 mm | - | 115 W/m² | - |
| 1777916218 | 12.22° C | 30% | 1015.3 hPa | 0 mm | - | 133 W/m² | - |
| 1777915916 | 12.78° C | 29% | 1015.3 hPa | 0 mm | - | 173 W/m² | - |
| 1777915612 | 12.78° C | 31% | 1015.4 hPa | 0 mm | - | 184 W/m² | - |
| 1777915309 | 12.78° C | 30% | 1015.2 hPa | 0 mm | - | 173 W/m² | - |
| 1777915005 | 12.78° C | 29% | 1015 hPa | 0 mm | - | 183 W/m² | - |
| 1777914703 | 13.89° C | 27% | 1015.6 hPa | 0 mm | - | 185 W/m² | - |
| 1777914399 | 14.44° C | 26% | 1015.3 hPa | 0 mm | - | 332 W/m² | - |
| 1777914096 | 13.89° C | 28% | 1015.7 hPa | 0 mm | - | 621 W/m² | - |
| 1777913792 | 13.89° C | 27% | 1015.7 hPa | 0 mm | - | 565 W/m² | - |
| 1777913489 | 13.33° C | 31% | 1015.6 hPa | 0 mm | - | 688 W/m² | - |
| 1777913186 | 12.78° C | 29% | 1015.9 hPa | 0 mm | - | 538 W/m² | - |
| 1777912881 | 12.22° C | 30% | 1015.7 hPa | 0 mm | - | 488 W/m² | - |
| 1777912578 | 12.22° C | 31% | 1015.8 hPa | 0 mm | - | 256 W/m² | - |
* Rain latest hour (hover to see other rain measurements)
** Current wind speed in m/s (hover to see current wind gust speed)